Weather History for KRQE - July, 2013

Change the Weather History Date:

Wednesday, July 3, 2013

  Actual Average Record
Temperature  
Mean Temperature 68 °F -  
Max Temperature 87 °F 86 °F 98 °F (1989)
Min Temperature 50 °F 52 °F 37 °F (1979)
Cooling Degree Days 4    
Growing Degree Days 18 (Base 50)    
Moisture  
Dew Point 43 °F    
Average Humidity 44    
Maximum Humidity 96    
Minimum Humidity 13    
Precipitation  
Precipitation 0.00 in - - ()
Sea Level Pressure  
Sea Level Pressure 29.82 in    
Wind  
Wind Speed 4 mph (North)    
Max Wind Speed 18 mph    
Max Gust Speed 28 mph    
Visibility 10 miles    
Events      
Averages and records for this station are not official NWS values.
T = Trace of Precipitation, MM = Missing Value Source: NWS Daily Summary

Daily Weather History Graph

Daily Weather History Graph

Search for Another Location

Airport or City:

Trip Planner

Search our weather history database for the weather conditions in past years. The results will help you decide how hot, cold, wet, or windy it might be!

Date:

Astronomy

Jul. 03, 2013 Rise Set
Actual Time 6:05 AM MDT 8:35 PM MDT
Civil Twilight 5:35 AM MDT 9:05 PM MDT
Nautical Twilight 4:58 AM MDT 9:42 PM MDT
Astronomical Twilight 4:17 AM MDT 10:23 PM MDT
Moon 2:41 AM MDT (7/3) 4:52 PM MDT (7/3)
Length of Visible Light 15h 30m
Length of Day
14h 30m
Waning Crescent, 18% of the Moon is Illuminated
Jul 3
Waning Crescent
Jul 8
New
Jul 15
First Quarter
Jul 22
Full
Jul 29
Last Quarter

Hourly Weather History & Observations

Time (MDT) Temp. Dew Point Humidity Pressure Visibility Wind Dir Wind Speed Gust Speed Precip Events Conditions
12:53 AM 61.0 °F 50.0 °F 67% 29.89 in 10.0 mi Calm Calm - N/A   Mostly Cloudy
1:53 AM 62.1 °F 48.9 °F 62% 29.90 in 10.0 mi SSE 9.2 mph - N/A   Mostly Cloudy
2:53 AM 57.0 °F 50.0 °F 77% 29.91 in 10.0 mi Calm Calm - 0.00 in   Clear
3:53 AM 57.0 °F 50.0 °F 77% 29.96 in 10.0 mi Calm Calm - N/A   Clear
4:53 AM 54.0 °F 50.0 °F 86% 29.97 in 10.0 mi Calm Calm - N/A   Clear
5:53 AM 50.0 °F 48.9 °F 96% 29.98 in 10.0 mi Calm Calm - N/A   Clear
7:53 AM 59.0 °F 51.1 °F 75% 29.93 in 10.0 mi Calm Calm - N/A   Clear
8:53 AM 63.0 °F 50.0 °F 63% 29.92 in 10.0 mi Calm Calm - N/A   Clear
9:53 AM 66.0 °F 50.0 °F 56% 29.91 in 10.0 mi Calm Calm - N/A   Clear
10:53 AM 72.0 °F 52.0 °F 49% 29.88 in 10.0 mi Calm Calm - N/A   Clear
11:53 AM 77.0 °F 48.9 °F 37% 29.85 in 10.0 mi Variable 4.6 mph - N/A   Clear
12:53 PM 84.0 °F 39.9 °F 21% 29.80 in 10.0 mi NNE 5.8 mph - N/A   Clear
1:53 PM 82.9 °F 45.0 °F 26% 29.77 in 10.0 mi SE 9.2 mph 16.1 mph N/A   Clear
2:53 PM 87.1 °F 37.9 °F 18% 29.76 in 10.0 mi Variable 5.8 mph - N/A   Partly Cloudy
3:53 PM 87.1 °F 32.0 °F 14% 29.74 in 10.0 mi NNW 11.5 mph - N/A   Clear
4:53 PM 87.1 °F 32.0 °F 14% 29.72 in 10.0 mi NNW 18.4 mph 27.6 mph N/A   Clear
5:53 PM 87.1 °F 33.1 °F 15% 29.69 in 10.0 mi NW 17.3 mph 26.5 mph N/A   Scattered Clouds
6:53 PM 87.1 °F 30.9 °F 13% 29.68 in 10.0 mi NW 11.5 mph - N/A   Clear
7:53 PM 84.0 °F 30.9 °F 15% 29.69 in 10.0 mi NW 8.1 mph 18.4 mph N/A   Clear
8:53 PM 78.1 °F 34.0 °F 20% 29.72 in 10.0 mi North 3.5 mph - N/A   Clear
9:53 PM 73.0 °F 37.9 °F 28% 29.74 in 10.0 mi NNE 5.8 mph - N/A   Clear
10:53 PM 66.9 °F 42.1 °F 40% 29.73 in 10.0 mi South 3.5 mph - N/A   Clear
11:53 PM 68.0 °F 39.0 °F 35% 29.71 in 10.0 mi ESE 11.5 mph - N/A   Clear